User: anonymous   Login
Location: Bear Valley Meadows
(40.9851°N, 123.0761°W)
Time: 05:46:22
(UTC+00:00)
Language:

SL-24 DEB - Orbit

View from above orbital plane
View from above orbital plane
View from above satellite
View from above satellite

Ground track
Ground track

The orbit data is extracted from the following two-line orbital elements,

1 36510U 10013C   24205.53415793  .00006415  00000-0  10954-2 0  9997
2 36510  92.0278 132.1109 0019500 302.1758  57.7567 14.68818732762407
Epoch (UTC): 23 July 2024 12:49:11
Eccentricity: 0.0019500
inclination: 92.0278°
perigee height: 651 km
apogee height: 678 km
right ascension of ascending node: 132.1109°
argument of perigee: 302.1758°
revolutions per day: 14.68818732
mean anomaly at epoch: 57.7567°
orbit number at epoch: 76240

The dashed part of the orbit path shows where the satellite is in the earth's shadow,  

DLR